Powrót do katalogu

STARLINK-11440

AktywnyŁącznośćVLEO
NORAD 62513·PAYLOAD·🇺🇸 United States

Wystrzelony Jan 8, 2025 z Cape Canaveral Space Force Station

Loading…

Następne Przeloty (najbliższe 24 godziny)

TLE

ŚwieżeSource: CelesTrak SupGP

Epoka: Sep 15, 2026, 02:29 UTC

1 62513C 25004C   26258.10395833 -.00124760  00000+0 -96912-3 0  2582
2 62513  43.0008   9.1962 0001832 265.5932 191.0955 15.70897632    16

Śledź STARLINK-11440 w czasie rzeczywistym z AllMySat

Download on the App Store